Content
SEND FEEDBACK

Daily
Averages
Monthly
Summary
China

TAIYUAN, CHINA


Home > Asia > China
Elevation: 2555 feet     Latitude: 37 47N     Longitude: 112 33E

WEATHER
 
SELECT A DAY
Number of Records: 233,467;   Date Range: 7/1/96 - 10/22/14
 
SHARE

PRINT THIS DATA

[ ← Previous Day ]
WEATHER ALMANAC - JANUARY 31, 2013
[ Next Day → ]
[ °C ]   °F
Weather ElementAverageHighLow
Temperature37.2 °F48.2 °F (2:30 pm)26.6 °F (6:30 am)
Dewpoint27 °F32 °F (5:00 pm)21.2 °F (6:30 am)
Humidity66.9 %87 % (8:00 am)39 % (2:00 pm)
Barometer30.04 in30.21 in (11:00 pm)29.98 in (4:00 am)
Wind Speed4.1 mph8.9 mph (3:00 am)
Weather ElementAverage
Visibility2 mi
Wind DirectionSSE (149.8 °)

Weather ElementTotal
Precipitation---
Heating Degree Days27.6 (Base 65)
Averaged from 54 records on January 31, 2013
WEATHER CONDITIONS BREAKOUT
WIND DIRECTION BREAKOUT
WEATHER BY HOUR - JANUARY 31, 2013
[ °C ]   °F
Local TimeTemperatureDewpointHumidityBarometerVisibilityWind DirectionWind SpeedGust SpeedPrecipitationEventsConditions
12:30 AM32.0 °F23.0 °F69 %30.04 in3.1 miENE (70°)4.5 mphHaze
1:00 AM35.6 °F28.4 °F75 %30.04 in2.5 miEast (80°)4.5 mphHaze
1:30 AM30.2 °F24.8 °F80 %30.04 in2.5 miEast (80°)4.5 mphHaze
2:00 AM30.0 °F25.0 °F74 %30.09 in7.0 miENE (70°)4.5 mphClear
2:00 AM32.0 °F24.8 °F75 %30.04 in2.5 miEast (80°)6.7 mphHaze
2:30 AM33.8 °F24.8 °F70 %30.01 in2.5 miENE (70°)6.7 mphHaze
3:00 AM35.6 °F26.6 °F70 %30.01 in2.5 miENE (70°)8.9 mphHaze
3:30 AM35.6 °F26.6 °F70 %30.01 in2.5 miEast (80°)6.7 mphHaze
4:00 AM32.0 °F24.8 °F75 %29.98 in1.9 miEast (90°)6.7 mphHaze
4:30 AM32.0 °F24.8 °F75 %29.98 in1.9 miEast (90°)6.7 mphHaze
5:00 AM27.0 °F22.0 °F72 %30.07 in7.0 miNNW (340°)4.5 mphClear
5:00 AM30.2 °F24.8 °F80 %29.98 in1.9 miEast (100°)4.5 mphHaze
5:30 AM30.2 °F23.0 °F75 %29.98 in1.9 miEast (100°)6.7 mphHaze
6:00 AM28.4 °F23.0 °F80 %30.01 in1.9 miWest (260°)4.5 mphMist
6:30 AM26.6 °F21.2 °F80 %30.01 in1.6 miCalmMist
7:00 AM28.4 °F23.0 °F80 %30.01 in1.6 miNorth (350°)2.2 mphMist
7:30 AM28.4 °F23.0 °F80 %30.01 in1.2 miEast (90°)4.5 mphMist
8:00 AM32.0 °F28.4 °F87 %30.04 in1.2 miENE (60°)4.5 mphScattered Clouds
8:30 AM35.6 °F30.2 °F81 %30.04 in1.2 miEast (90°)2.2 mphMist
9:00 AM35.6 °F30.2 °F81 %30.04 in1.2 miEast (90°)2.2 mphMist
9:30 AM37.4 °F30.2 °F75 %30.04 in1.0 miSouth (190°)2.2 mphMist
10:00 AM37.4 °F28.4 °F70 %30.04 in1.0 miSSW (200°)2.2 mphMist
10:30 AM39.2 °F28.4 °F65 %30.04 in1.1 miSSW (210°)2.2 mphHaze
11:00 AM38.0 °F29.0 °F59 %30.17 in4.0 miSW (220°)2.2 mphMist
11:00 AM39.2 °F26.6 °F61 %30.04 in1.1 miSouth (190°)2.2 mphHaze
11:30 AM41.0 °F26.6 °F57 %30.04 in1.2 miSouth (180°)4.5 mphHaze
12:00 PM42.8 °F28.4 °F57 %30.04 in1.2 miSouth (170°)4.5 mphHaze
12:30 PM44.6 °F28.4 °F53 %30.04 in1.2 miSouth (170°)4.5 mphHaze
1:00 PM44.6 °F28.4 °F53 %30.01 in1.2 miSouth (170°)6.7 mphHaze
1:30 PM46.4 °F28.4 °F50 %29.98 in1.2 miSSE (160°)6.7 mphHaze
2:00 PM47.0 °F30.0 °F39 %30.07 in5.0 miSSW (200°)6.7 mphHaze
2:00 PM46.4 °F28.4 °F50 %29.98 in1.2 miSouth (170°)6.7 mphHaze
2:30 PM48.2 °F28.4 °F46 %29.98 in1.2 miSouth (170°)4.5 mphHaze
3:00 PM48.2 °F28.4 °F46 %29.98 in1.6 miSouth (190°)4.5 mphHaze
3:30 PM48.2 °F28.4 °F46 %29.98 in1.6 miSSW (210°)4.5 mphHaze
4:00 PM48.2 °F28.4 °F46 %29.98 in1.6 miSW (220°)4.5 mphHaze
4:30 PM48.2 °F28.4 °F46 %29.98 in1.6 miSouth (190°)4.5 mphHaze
5:00 PM47.0 °F32.0 °F44 %30.10 in5.0 miWSW (250°)2.2 mphHaze
5:00 PM48.2 °F28.4 °F46 %30.01 in1.2 miSSW (210°)2.2 mphHaze
5:30 PM44.6 °F28.4 °F53 %30.01 in1.2 miSouth (180°)2.2 mphHaze
6:00 PM41.0 °F28.4 °F61 %30.01 in1.2 miSE (140°)2.2 mphHaze
6:30 PM39.2 °F26.6 °F61 %30.01 in1.4 miESE (120°)4.5 mphHaze
7:00 PM41.0 °F30.2 °F65 %30.01 in1.1 miEast (90°)2.2 mphHaze
7:30 PM41.0 °F28.4 °F61 %30.04 in1.0 miEast (100°)6.7 mphHaze
8:00 PM36.0 °F31.0 °F74 %30.16 in5.0 miSSW (200°)4.5 mphMist
8:00 PM39.2 °F28.4 °F65 %30.04 in1.0 miSSE (150°)2.2 mphHaze
8:30 PM35.6 °F26.6 °F70 %30.04 in0.9 miSSE (150°)2.2 mphHaze
9:00 PM33.8 °F26.6 °F75 %30.06 in0.9 miESE (120°)2.2 mphMist
9:30 PM33.8 °F26.6 °F75 %30.06 in0.7 miSouth (170°)4.5 mphMist
10:00 PM33.8 °F28.4 °F81 %30.09 in0.7 miSE (130°)2.2 mphMist
10:30 PM28.4 °F23.0 °F80 %30.09 in0.7 miNNW (330°)2.2 mphMist
11:00 PM33.0 °F30.0 °F82 %30.21 in5.0 miENE (70°)2.2 mphMist
11:00 PM26.6 °F23.0 °F86 %30.09 in0.7 miEast (100°)2.2 mphMist
11:30 PM28.4 °F24.8 °F86 %30.09 in0.7 miESE (110°)4.5 mphMist
Hourly data recorded from ZBYN, located miles away from Taiyuan, China







STORIES FROM OUR PARTNERS